Aérodrome :
LOGIN :

S'inscrire | Disclaimer

   EN    FR    IT 

 










Légende :    VFR   VFR Marginal   IFR   IFR Intensif   IFR Très Intensif
Visi : 
Plafond : 
>= 8 km
>= 3000ft
5 à 8 km
1000 à 3000 ft
1500m à 5 km
500 à 1000 ft
800 à 1500m
200 à 500 ft
< 800m
< 200 ft
Symboles :   Orages  Brouillard  Fortes neiges  Fortes précipitations  Vent > 20 kt
SIGMETs :   Divers  Orages  Givrage  Turbulence  Onde Orograph.  Cendres Volcan.







- Altitude de l'aérodrome : 19 ft
- Code IATA : LCY
- Voir les cartes d'approche


EGLC - London City

DERNIER METAR :
  • 200150Z AUTO 24006KT 9999 BKN018 OVC047 08/03 Q1020

METARs EXPIRÉS :
  • 200120Z AUTO 24006KT 9999 BKN020 BKN034 OVC047 07/03 Q1021
  • 200050Z AUTO 24004KT 200V280 9999 SCT038 OVC045 07/02 Q1021
  • 200020Z AUTO 23005KT 9999 BKN038 OVC044 07/02 Q1022
  • 192350Z AUTO 21004KT 160V250 9999 OVC040 07/02 Q1022
  • 192320Z AUTO 23003KT 9999 FEW048 06/02 Q1023

Prévision TAF périmée.
ATIS : +44 20 7646 0224
Pas de NOTAMs connus pour ce terrain.



MET'MAP, la Météo Aéronautique d'un coup d'oeil ! - Copyright ORBIFLY Décembre 2007 - Disclaimer

ORBIFLY MET'MAP TEAM :

Programmation & Développement : Alexandra Zaïnal
Conception & Développement : Baudouin d'Aumeries
Co-Programmation & Développement : Marc-Olivier Méhu
Soutien technique & logistique : Manuel Goepfert

Contact : metmap@orbifly.com




SOURCES & CREDITS :

   NOAA